GEFSSE_500_meanwind_288.txt.gz
Wind_Speed
6 5 5 5 5 5 6 6 6 7 7 7 8 8 9 9 8 8 8 9 9 8 8 9 9 8 7 7 7 5 5 5 6 7 6 6 5 4 4 4 5 5 5
7 6 5 5 5 5 6 6 7 7 7 8 7 8 8 8 8 8 8 8 9 8 8 9 8 8 8 7 6 5 5 5 7 6 6 7 6 5 3 4 5 5 5
7 6 5 5 5 6 6 6 6 6 7 7 7 7 7 8 8 8 8 8 8 7 8 8 8 8 8 7 6 5 5 6 7 6 6 7 6 5 4 4 5 5 5
7 7 6 6 6 7 6 6 6 6 7 7 6 7 7 8 8 8 9 9 8 7 7 8 8 8 8 7 6 5 6 6 5 5 5 6 6 5 5 5 5 5 5
8 7 7 6 7 7 7 7 7 7 7 7 6 6 6 7 7 9 9 9 8 7 7 7 7 8 7 7 6 6 5 4 4 5 5 6 5 6 6 5 5 5 5
8 7 7 6 7 7 7 7 7 8 8 8 7 7 7 7 8 9 9 8 7 7 7 7 7 7 7 6 6 5 5 4 4 5 5 5 5 6 6 5 5 5 4
8 7 7 7 7 7 8 8 8 8 8 8 8 8 7 8 8 8 8 8 7 7 7 7 7 7 7 5 5 5 4 4 4 5 5 4 5 6 5 5 4 4 4
8 8 7 7 7 8 8 9 9 8 8 8 8 8 8 8 8 8 7 7 6 6 6 6 6 7 7 6 5 5 4 4 3 4 4 4 5 6 5 5 5 4 4
8 8 8 7 7 7 8 9 8 8 8 8 8 8 8 8 7 7 7 6 6 6 6 7 6 6 6 5 4 4 4 3 3 3 3 4 5 5 4 4 4 4 4
9 9 9 8 8 8 8 9 8 8 8 8 8 8 7 7 7 6 6 5 5 4 5 6 7 6 7 5 5 4 4 4 3 3 3 4 4 4 4 4 3 3 4
10 10 9 8 8 8 8 8 8 8 8 8 8 7 8 7 6 5 5 4 4 4 5 6 8 7 7 6 5 5 4 3 2 3 4 4 4 4 3 3 3 3 3
10 10 9 8 8 8 8 8 8 8 8 7 7 7 7 7 6 5 5 4 4 5 6 7 7 7 7 6 5 4 3 2 1 3 3 3 3 3 3 2 2 3 4
10 10 9 9 8 8 8 8 8 8 7 7 6 6 6 6 6 5 5 5 5 5 6 6 5 5 6 6 5 4 3 2 2 3 3 3 2 3 3 3 4 4 4
10 9 9 8 8 8 8 8 8 8 8 7 7 7 6 6 5 4 4 4 4 4 6 6 5 5 5 5 5 4 3 2 1 2 2 2 2 3 3 4 4 4 5
10 9 8 8 8 8 8 8 8 7 7 7 7 7 6 5 5 5 4 4 4 4 5 5 5 4 4 4 4 4 3 2 2 1 1 1 2 3 3 4 4 5 6
11 10 9 8 8 7 7 7 7 7 7 7 7 6 6 5 5 5 5 5 5 5 5 5 5 4 3 3 3 3 3 2 2 1 1 2 2 3 3 3 4 5 6
11 11 10 9 9 8 7 7 7 7 7 7 7 6 6 6 6 5 5 6 6 5 5 4 3 3 2 2 3 2 2 2 3 2 2 2 2 3 3 3 4 5 7
11 11 10 9 9 8 7 7 7 7 7 7 7 6 6 7 7 6 6 6 6 5 4 4 3 2 1 2 2 2 1 2 2 1 2 2 3 3 4 5 6 6 7
11 11 10 9 9 8 8 8 8 8 7 7 7 7 7 7 6 6 6 6 5 5 4 3 2 1 0 1 0 1 1 2 2 2 2 2 3 3 4 6 6 7 8
11 11 11 10 9 9 9 8 8 8 8 8 7 7 7 7 7 7 6 5 5 4 4 3 2 2 2 1 0 1 2 2 2 2 3 4 5 5 5 6 6 7 8
10 10 10 10 10 10 10 9 9 8 8 8 8 7 7 6 6 6 6 5 4 4 3 3 3 3 2 2 1 1 2 2 2 3 4 5 6 6 6 6 7 8 8
10 10 10 10 10 10 9 9 8 9 9 9 8 7 7 6 6 5 5 4 4 3 2 2 1 1 2 2 1 2 2 3 3 3 4 5 6 6 6 7 8 9 9
8 9 9 9 9 9 9 8 8 8 9 8 8 7 6 6 5 5 5 4 4 3 2 2 2 3 3 3 3 4 4 4 4 4 5 5 6 6 7 8 8 9 9
7 7 8 8 8 8 8 7 7 7 7 7 7 6 5 5 5 5 5 5 4 4 3 3 3 4 4 4 4 4 5 5 4 5 6 6 7 7 7 8 9 9 10
6 6 7 7 7 7 7 6 6 6 6 6 6 6 5 5 5 5 5 5 5 5 5 5 5 5 5 5 5 5 6 6 6 7 7 8 8 8 8 9 10 10 11
6 6 6 6 6 6 6 5 5 5 4 5 5 5 5 6 6 6 6 6 6 6 6 6 7 7 7 6 7 7 7 7 7 8 9 9 9 9 10 11 12 12 13

GEFSSE_500_meanwind_294.txt.gz
Wind_Speed
2 3 3 3 4 3 3 4 4 4 5 5 6 6 6 6 7 7 7 6 5 5 6 5 6 6 6 5 4 4 3 4 4 4 4 5 5 5 4 4 4 4 4
1 2 2 3 3 3 3 4 4 4 5 5 5 6 6 6 6 6 6 5 5 5 5 5 6 6 5 4 3 4 3 3 4 5 4 5 5 5 4 4 4 4 4
2 2 3 2 2 2 3 3 4 4 5 5 5 5 6 6 6 6 6 5 5 5 5 5 5 6 5 4 3 3 3 4 4 3 4 4 4 4 4 4 4 4 3
2 2 3 3 2 3 3 3 3 4 4 4 4 5 6 6 5 5 6 5 5 5 4 3 4 5 4 4 2 2 3 4 4 3 2 2 4 4 4 4 3 3 3
3 3 3 3 3 3 3 2 3 3 3 3 4 5 5 6 5 5 5 5 5 5 4 4 3 4 3 3 2 2 3 4 3 3 2 3 3 3 3 4 3 2 3
4 3 3 4 3 3 2 2 2 2 3 3 3 4 6 6 6 6 6 6 5 4 4 4 4 4 3 2 2 2 3 2 2 2 2 2 3 3 3 3 3 2 3
4 4 4 4 3 3 3 3 2 2 2 3 3 3 6 6 6 6 6 5 5 5 4 4 4 3 3 2 2 2 2 2 1 1 1 1 2 3 4 4 4 3 2
4 5 4 4 3 3 3 4 4 3 4 4 3 3 5 6 6 6 5 5 5 4 4 3 3 3 3 3 3 3 2 2 1 1 1 1 1 2 3 3 4 4 4
5 5 5 5 5 4 5 5 5 5 5 4 4 4 4 4 5 5 5 4 4 3 2 3 3 3 3 4 4 3 2 1 1 2 2 1 1 2 2 3 3 3 3
6 6 5 6 6 5 6 5 5 6 5 4 4 4 4 4 4 4 4 3 3 3 3 3 3 2 3 4 4 3 3 2 1 1 1 1 1 1 2 2 2 2 3
7 7 6 6 6 6 6 6 6 6 5 5 4 5 5 4 5 4 3 2 3 3 3 3 3 3 3 3 3 4 4 3 2 1 1 1 1 2 1 2 2 3 3
7 6 6 7 7 6 6 5 5 6 6 5 4 5 4 4 4 4 3 2 2 2 3 3 3 3 3 3 4 4 4 3 2 1 1 1 1 2 2 2 3 3 4
7 7 7 7 7 6 6 5 5 6 6 6 5 4 4 3 3 3 3 2 3 3 3 3 4 3 3 3 3 3 3 3 2 2 1 1 2 2 3 3 4 4 4
7 7 7 8 7 6 6 5 5 6 6 6 6 4 4 4 3 3 4 4 3 3 4 3 4 4 3 2 2 3 3 3 3 2 2 2 3 3 3 4 4 4 5
7 8 7 7 7 7 6 6 5 6 6 6 6 5 5 5 5 4 3 3 3 2 2 2 2 3 2 2 3 3 4 3 3 2 2 2 3 3 3 4 5 5 5
8 8 7 7 7 7 7 7 6 7 7 7 7 7 6 6 5 5 4 3 3 3 3 3 3 2 1 1 1 2 2 1 2 1 1 2 3 3 3 4 5 5 6
9 8 8 8 8 8 7 7 7 7 7 7 7 7 7 6 6 5 5 5 4 4 4 4 4 3 2 1 1 1 1 1 2 1 2 3 4 4 4 5 6 6 6
10 8 8 8 8 8 7 7 7 7 7 7 8 8 7 7 7 6 6 6 5 4 4 4 3 2 2 1 1 2 2 2 2 2 3 4 4 4 5 6 6 7 6
10 9 9 8 8 8 8 7 7 7 6 6 7 8 7 7 7 7 6 6 6 6 5 4 3 2 3 2 2 2 3 2 3 3 4 4 5 5 6 6 6 7 7
10 10 10 9 9 9 9 8 7 7 7 7 7 7 7 7 7 7 6 6 6 5 4 4 4 3 3 3 3 3 3 3 4 4 5 6 6 6 6 6 7 6 7
10 10 10 10 9 9 8 8 7 6 6 6 5 6 7 7 7 6 6 7 6 5 5 4 5 4 4 4 4 4 4 4 6 6 6 6 6 7 7 7 7 8 8
10 10 11 11 10 10 9 9 8 6 6 5 5 5 6 6 6 6 6 6 6 6 5 5 5 5 5 5 5 5 5 6 7 6 7 7 7 7 7 8 7 8 8
10 10 10 11 11 10 10 10 10 8 7 6 6 5 5 6 6 7 7 7 7 7 7 7 6 6 6 6 6 6 7 7 7 7 7 8 8 8 9 9 8 8 9
10 10 10 11 11 11 10 9 9 8 8 8 7 7 6 7 7 8 7 7 7 7 7 7 7 7 7 7 7 7 7 8 8 8 9 9 9 9 10 10 10 10 10
10 10 10 10 10 10 10 9 9 9 8 8 8 8 8 7 7 8 8 8 7 7 7 8 8 7 7 7 7 7 8 8 9 9 9 9 10 10 10 10 10 11 11
10 10 9 9 10 10 10 10 9 9 9 9 9 9 8 8 8 8 8 9 8 7 8 8 9 8 8 8 8 8 9 9 10 9 10 10 10 10 10 10 11 12 12

GEFSSE_500_meanwind_300.txt.gz
Wind_Speed
5 5 5 5 5 5 4 5 5 5 6 6 6 5 5 5 5 5 5 5 5 5 5 5 5 6 5 5 5 4 5 5 5 5 5 5 5 4 4 6 6 5 4
5 5 5 5 4 4 4 4 5 5 4 5 5 5 5 5 5 5 5 5 4 4 4 4 5 5 5 5 5 4 4 5 4 5 5 5 4 3 4 5 5 5 4
4 5 5 5 4 4 4 4 3 4 4 5 5 5 5 4 4 4 4 4 4 4 4 4 5 5 5 4 3 3 4 4 4 4 4 4 4 3 3 4 5 5 5
5 5 4 4 4 3 3 3 3 3 3 4 4 4 5 4 4 4 4 5 4 4 4 4 4 5 4 3 3 3 4 4 3 3 4 4 4 4 4 5 5 4 5
5 5 5 5 4 3 3 2 2 2 2 3 3 3 4 4 4 4 4 4 4 4 3 4 4 5 5 4 3 3 4 4 3 3 3 2 3 4 5 5 5 4 5
6 6 6 6 4 4 4 3 2 2 1 2 2 3 4 4 4 4 3 3 3 4 3 4 4 5 5 4 3 3 3 4 4 4 3 2 2 3 5 5 5 4 4
6 6 6 6 5 4 4 3 2 2 1 2 2 3 3 3 4 4 4 4 4 4 4 4 5 5 5 4 3 3 3 4 4 4 4 3 2 3 4 5 4 4 5
6 6 7 7 6 5 5 4 4 2 1 2 2 3 3 3 3 3 4 4 4 4 4 5 5 5 4 4 3 3 3 3 3 3 3 3 2 3 4 3 3 4 4
7 7 7 7 7 6 6 5 4 4 3 2 3 3 3 3 3 3 3 3 4 4 4 5 5 5 4 4 4 4 4 4 3 2 2 2 2 2 2 2 3 3 3
8 8 8 7 7 6 5 5 5 5 4 3 3 4 3 3 3 3 3 3 3 3 4 4 4 4 4 4 4 4 4 4 3 2 1 2 1 1 1 2 2 3 3
8 9 9 8 8 7 6 5 5 5 6 5 4 3 3 3 3 2 2 2 2 3 4 4 4 4 3 4 4 4 5 4 3 2 1 1 0 0 1 2 3 3 3
9 10 9 9 9 8 8 7 6 6 6 6 5 4 3 3 3 2 2 2 2 3 3 4 2 3 3 4 4 4 4 4 4 3 2 0 0 1 1 2 2 3 3
9 9 9 9 9 9 8 8 8 7 7 7 6 5 4 4 3 2 2 2 2 3 3 3 2 3 3 3 3 3 3 3 4 3 2 1 1 1 2 2 2 2 3
10 10 10 10 10 10 9 9 8 8 8 7 6 6 5 5 5 4 4 3 3 2 3 3 3 3 3 3 3 3 3 3 2 2 2 2 1 2 2 2 3 3 3
11 11 10 11 11 10 9 8 8 8 8 7 7 6 6 6 5 5 5 4 3 3 3 3 3 3 3 3 3 3 3 3 2 2 2 2 2 2 3 2 3 3 4
11 11 11 11 11 10 9 9 8 7 7 7 7 7 6 6 6 5 4 4 3 3 4 3 3 3 3 3 3 3 3 3 2 2 2 2 3 2 2 2 2 3 4
11 12 11 11 11 10 10 9 8 7 6 7 7 6 6 5 5 5 4 3 3 3 2 2 3 2 2 2 2 3 3 3 3 3 3 3 3 2 2 2 3 3 4
11 11 11 11 10 9 10 9 8 7 6 6 6 6 6 5 4 4 4 3 3 2 2 2 2 1 1 1 2 2 3 4 4 4 3 3 2 3 3 3 3 4 4
11 11 11 11 10 9 9 9 8 7 6 5 5 5 5 4 4 3 3 3 3 3 2 2 1 1 1 1 1 2 3 4 5 4 3 3 4 4 4 4 4 4 5
13 12 11 10 10 9 9 9 8 7 6 5 5 5 5 4 4 3 3 2 2 2 3 2 2 1 1 1 1 2 3 3 4 4 5 5 5 5 6 6 5 5 6
13 12 11 10 10 9 9 9 9 8 7 6 6 6 6 5 4 3 3 3 3 3 3 2 2 2 2 1 2 2 3 3 3 3 4 5 5 6 6 6 6 6 6
13 12 11 11 10 9 9 9 9 8 7 7 5 6 6 7 6 4 4 5 5 5 4 3 3 3 3 3 2 3 4 3 4 5 6 6 7 7 7 7 8 7 7
12 12 12 12 11 10 9 10 10 9 8 7 7 7 7 6 6 6 5 5 5 5 5 5 4 4 4 4 4 4 5 5 5 6 6 7 8 8 8 8 9 9 9
12 11 12 12 12 11 10 10 10 9 9 8 8 7 6 7 7 7 7 7 5 5 6 5 4 4 4 5 5 5 5 6 6 6 7 7 8 9 9 9 9 9 9
11 11 11 12 12 11 11 10 10 9 9 9 9 8 7 7 7 7 7 7 6 6 6 5 5 5 6 6 6 7 7 7 7 7 7 7 8 9 10 10 11 11 11
10 10 10 11 11 11 11 10 10 10 10 10 10 9 8 7 7 7 7 7 7 7 7 7 7 7 7 8 8 8 8 8 8 8 8 8 8 9 9 11 11 11 12

GEFSSE_500_meanwind_306.txt.gz
Wind_Speed
6 6 6 5 6 6 6 6 6 6 7 6 6 6 6 6 6 5 5 4 4 4 4 4 4 4 4 4 4 2 2 3 3 3 3 3 4 4 4 3 4 5 4
6 6 6 5 5 6 6 7 7 6 6 6 6 5 5 4 4 4 5 5 5 4 4 4 4 3 3 3 3 2 2 3 3 3 3 3 3 4 4 4 4 5 4
6 5 5 5 5 5 6 6 6 6 6 6 5 5 5 4 4 4 5 5 4 4 4 4 4 3 3 4 3 3 2 2 2 3 3 3 3 3 4 4 5 5 4
6 6 5 5 5 5 5 5 5 5 5 5 5 5 4 4 4 4 5 4 4 3 3 3 3 3 4 4 3 2 2 3 3 3 3 4 3 3 4 5 5 4 4
6 6 6 5 5 5 5 5 4 4 4 4 4 3 3 3 3 3 3 4 4 3 3 3 3 3 4 3 3 3 2 3 3 2 3 3 3 3 4 5 5 5 5
6 6 6 5 5 5 5 5 4 4 3 3 3 2 2 3 3 3 3 3 3 3 3 3 3 3 3 3 3 3 2 2 2 3 2 2 2 2 4 4 5 5 6
6 6 6 6 6 6 5 5 4 4 3 3 3 2 2 2 3 3 3 3 3 3 3 4 4 4 4 4 4 3 3 2 1 1 1 2 2 2 3 4 5 5 6
8 8 8 8 7 6 5 5 4 4 4 3 3 3 3 2 2 2 2 3 3 3 3 4 4 4 4 4 4 4 3 2 1 1 1 2 2 2 2 3 4 5 5
9 9 9 9 8 7 6 5 4 4 4 3 3 3 3 2 2 2 2 2 3 3 3 3 4 4 4 4 4 4 3 2 1 1 1 1 2 2 3 3 4 5 5
10 10 10 10 9 8 7 6 5 5 4 4 3 3 2 2 2 2 1 1 2 3 3 3 3 4 4 4 3 2 2 2 2 1 1 2 2 2 3 3 4 5 5
11 11 11 10 9 8 7 6 6 5 5 5 5 4 3 2 2 1 1 1 1 3 3 3 4 4 4 4 3 3 3 3 3 3 2 1 2 2 2 3 4 5 5
11 11 10 10 10 9 9 8 8 8 7 7 6 5 4 3 2 1 1 1 1 1 2 3 3 4 4 4 3 3 3 3 3 3 2 2 2 2 3 3 3 4 5
11 10 10 10 10 10 10 10 9 8 8 7 7 6 5 4 3 2 2 1 1 1 1 2 3 4 4 4 4 4 4 3 3 3 3 3 3 3 3 3 4 4 4
11 11 10 10 10 9 9 9 8 7 7 7 7 6 5 5 4 3 2 2 2 2 1 2 3 4 4 5 5 4 3 4 3 3 3 4 4 4 4 4 4 5 5
11 11 10 10 10 9 9 8 7 6 6 6 5 5 5 5 5 4 2 2 1 1 1 2 2 3 3 4 4 4 4 4 4 4 3 3 4 5 5 5 5 5 5
12 12 12 11 11 10 9 8 7 7 6 6 5 4 4 4 4 4 3 2 1 0 0 2 2 3 3 4 4 5 4 4 4 5 5 5 5 5 5 6 5 5 6
12 12 12 12 11 11 10 9 7 6 5 5 4 4 4 4 3 3 3 2 1 1 1 2 2 2 3 4 4 5 5 5 5 6 5 6 6 5 6 7 6 6 6
11 11 11 11 11 10 10 9 8 7 6 5 5 4 4 4 3 3 3 2 1 1 1 2 2 2 3 3 4 4 5 5 6 6 6 7 6 6 7 7 7 6 6
10 10 10 10 9 10 9 9 8 8 7 6 5 4 4 4 4 3 3 2 1 1 1 2 2 3 2 3 4 5 5 5 5 6 6 6 7 7 7 7 7 7 7
10 10 9 9 9 9 10 9 9 9 8 7 5 5 5 4 4 4 3 3 2 1 2 2 2 2 3 4 5 5 5 6 6 6 6 7 7 7 7 6 7 7 8
11 11 10 10 9 9 10 9 9 9 9 8 7 6 5 5 4 4 4 4 3 3 3 2 2 3 4 5 5 6 6 7 8 8 7 7 7 7 7 7 7 8 9
11 11 11 11 10 9 9 9 9 9 9 8 7 7 6 6 5 5 5 5 5 4 3 3 3 4 4 5 5 6 7 8 8 8 8 8 8 9 9 9 9 9 10
10 10 10 10 10 10 10 9 9 9 9 9 8 8 8 7 6 6 5 6 4 4 5 4 4 5 5 5 6 8 8 8 9 9 10 9 10 10 11 10 11 11 11
9 10 10 10 9 10 10 9 9 8 8 8 8 8 9 8 8 7 6 6 6 5 5 5 5 6 6 6 7 8 9 9 9 9 9 10 10 10 10 11 11 12 12
9 10 10 9 9 10 10 10 9 9 9 9 9 8 9 9 8 8 7 7 7 6 6 6 6 6 6 7 8 9 10 10 10 9 9 10 11 11 12 12 12 12 12
8 9 9 10 9 9 10 10 9 9 10 10 10 9 10 10 10 9 8 8 7 7 7 7 8 8 8 9 10 11 11 12 12 11 11 11 12 12 13 13 13 13 12

GEFSSE_500_meanwind_312.txt.gz
Wind_Speed
6 7 6 7 7 8 7 7 8 8 8 8 8 8 8 8 8 7 7 7 7 6 6 5 5 4 4 5 4 4 3 4 5 4 4 4 4 5 5 4 5 5 4
5 6 6 7 7 8 8 7 7 8 8 8 8 8 8 8 8 7 7 7 6 6 6 5 5 4 4 4 4 4 3 3 5 4 4 4 4 4 4 3 4 4 4
6 6 7 7 7 7 8 7 7 7 7 7 7 8 7 7 7 6 6 6 6 6 5 5 5 4 3 4 3 3 3 3 5 5 4 4 3 4 3 3 3 3 3
7 7 6 7 7 8 8 7 7 7 6 7 6 6 6 6 6 6 6 5 5 5 5 5 5 4 3 3 3 3 2 2 4 5 4 3 3 3 4 3 3 3 4
6 6 6 6 7 8 8 7 7 6 6 6 5 6 5 5 5 5 6 5 5 5 5 5 4 3 3 3 4 3 2 3 4 5 5 4 4 4 4 4 4 4 5
7 7 7 7 7 7 7 6 6 6 5 5 5 5 6 5 4 4 4 4 5 5 5 4 4 3 3 4 4 3 2 2 3 4 4 4 4 4 4 4 5 5 6
8 7 7 7 7 7 7 6 6 5 5 5 5 5 5 4 4 4 3 3 3 5 5 5 4 4 4 4 3 3 2 2 2 3 3 2 3 3 3 4 5 6 7
9 8 8 8 7 6 7 6 6 6 5 5 4 4 4 4 3 3 3 3 3 4 5 5 4 4 4 4 4 3 3 2 2 1 1 2 3 3 3 4 5 6 6
8 8 8 8 8 7 7 7 7 7 6 5 5 4 4 4 3 3 3 3 3 3 4 5 4 4 4 4 4 3 3 2 2 2 1 1 2 3 3 4 5 6 6
8 8 8 8 8 7 7 8 8 7 7 6 5 5 4 4 3 3 2 2 2 3 4 4 4 5 5 4 4 3 3 3 3 2 2 2 2 2 3 4 5 5 6
8 8 7 6 7 7 7 7 7 7 6 6 5 5 4 4 4 3 2 2 2 2 2 3 3 4 3 3 4 3 3 2 2 3 2 2 2 2 3 3 5 5 6
8 7 7 6 6 7 7 7 7 6 6 5 5 5 4 4 3 3 3 2 2 2 1 2 2 2 2 3 4 3 2 3 3 3 2 3 3 3 3 3 4 5 5
8 7 6 6 6 6 6 6 6 6 6 5 5 5 4 3 3 3 3 2 2 2 2 2 2 2 2 2 3 3 3 3 4 4 3 4 4 4 4 4 4 5 5
8 8 7 8 7 7 6 6 5 5 5 5 4 4 3 2 2 1 1 1 1 2 2 1 2 2 2 3 2 3 4 3 4 4 4 5 5 5 5 5 5 5 5
9 9 9 9 9 8 6 5 5 4 4 4 4 3 2 2 1 0 0 1 2 2 2 1 2 2 2 3 4 4 5 4 5 5 5 5 6 6 6 6 6 6 6
9 9 9 9 8 7 7 6 5 4 4 4 3 3 2 1 1 1 1 1 2 2 2 2 3 3 3 4 4 5 5 5 6 6 6 6 6 6 5 5 6 7 7
8 9 9 9 9 8 7 7 7 6 5 4 3 2 2 1 1 1 0 0 1 2 2 2 3 4 5 5 6 5 5 6 6 7 7 7 7 7 6 7 7 7 8
8 9 9 9 9 9 8 8 7 7 6 6 5 4 3 2 1 1 0 0 1 2 3 3 4 5 6 6 7 7 6 7 7 7 7 8 8 8 8 8 8 8 9
8 9 9 9 9 8 8 8 7 7 7 7 6 5 4 4 2 2 1 1 2 3 4 4 5 6 6 6 7 7 7 8 8 8 8 8 9 9 9 9 9 9 10
8 8 8 9 9 9 8 8 8 8 7 6 6 6 5 5 3 3 3 2 2 3 4 4 5 6 6 6 6 7 8 8 9 9 8 9 10 10 10 11 10 11 11
7 8 8 8 8 8 8 8 8 7 7 7 6 6 6 5 4 4 4 3 3 3 4 5 6 6 6 6 7 8 8 9 9 9 10 11 11 11 12 13 13 13 12
7 7 7 7 8 8 8 8 8 7 7 7 7 7 6 6 6 5 6 4 4 4 5 5 6 6 5 6 7 8 8 9 9 10 11 11 11 12 13 13 13 14 13
6 6 7 7 7 7 7 7 7 7 7 7 7 7 7 7 6 6 6 5 5 5 6 6 6 5 6 6 6 7 7 8 9 10 11 12 13 13 13 13 13 13 14
6 5 5 6 6 7 7 7 7 7 8 8 8 8 8 7 7 8 8 7 6 6 6 6 6 7 7 8 8 8 8 9 10 10 10 11 13 13 14 14 14 14 14
6 6 5 5 6 7 7 7 7 8 8 8 9 9 9 8 8 9 9 8 7 6 6 7 7 7 8 8 9 9 10 11 12 12 12 12 13 13 14 14 15 15 15
6 6 6 5 6 6 7 7 7 8 9 9 9 10 10 10 10 10 10 9 9 8 8 8 7 8 8 9 10 10 11 12 13 14 14 14 14 14 14 15 15 15 15